User: anonymous   Login
Location: Unspecified
(0.0000°N, 0.0000°E)
Time: 16:31:20
(UTC+00:00)
Language:

SICRAL 1 - Orbit

View from above orbital plane
View from above orbital plane
View from above satellite
View from above satellite

Ground track
Ground track

The orbit data is extracted from the following two-line orbital elements,

1 26694U 01005A   20019.74873841 0.00000000  00000-0  00000-0 0    00
2 26694   8.7006  44.3685 0007252 224.4511 135.5489  1.00270000    00
Epoch (UTC): 19 January 2020 17:58:10
Eccentricity: 0.0007252
inclination: 8.7006°
perigee height: 35756 km
apogee height: 35817 km
right ascension of ascending node: 44.3685°
argument of perigee: 224.4511°
revolutions per day: 1.00270000
mean anomaly at epoch: 135.5489°
orbit number at epoch: 0

The dashed part of the orbit path shows where the satellite is in the earth's shadow,  

DLR